Home > Weather > Harstad > Past weeks

Flag for Norway Weather for the Past 2 Weeks in Harstad, Norway

Now
30 °F

Chilly.


Feels Like: 23 °F
Forecast: 28 / 35 °F
Wind: 8 mph from Southwest

Location: Evenes

Current Time: Feb 8, 2016 at 12:09:51 AM

Latest Report: Feb 7, 2016 at 11:20 PM


Visibility: N/A

Pressure: 28.91 "Hg

Humidity: 69%

Dew point: 21 °F

Location of HarstadLocation

Historic Weather in Harstad — Graph

°F

Harstad Temperature Yesterday

Maximum temperature yesterday: 34 °F (at 1:50 PM)
Minimum temperature yesterday: 25 °F (at 1:50 AM)
Average temperature yesterday: 28 °F

High & Low Weather Summary for the Past Weeks

 TemperatureHumidityPressure
High39 °F (Jan 26, 3:20 PM)100% (Jan 24, 10:50 AM)29.89 "Hg (Jan 24, 10:50 AM)
Low9 °F (Feb 2, 9:50 AM)51% (Jan 29, 4:50 PM)28.26 "Hg (Jan 30, 7:50 AM)
Average30 °F83%29.13 "Hg
* Reported Jan 23 10:20 PM — Feb 7 10:50 PM, Harstad, Weather by CustomWeather, © 2016

Note: Actual official high and low records may vary slightly from our data, if they occured in-between our weather recording intervals... More about our weather records

Advertising

Harstad Weather History for the Previous 24 Hours

 ConditionsComfort  
Time TempWeatherWind HumidityBarometerVisibility
10:50 PM
Sun, Feb 7
28 °FChilly.7 mph74%28.91 "HgN/A
10:20 PM30 °FChilly.8 mph64%28.94 "HgN/A
9:50 PM30 °FPassing clouds.7 mph64%28.94 "HgN/A
8:50 PM28 °FPassing clouds.7 mph64%28.97 "HgN/A
7:50 PM30 °FPassing clouds.6 mph59%29.00 "HgN/A
6:50 PM30 °FPassing clouds.6 mph59%29.03 "HgN/A
5:50 PM28 °FPassing clouds.6 mph64%29.03 "HgN/A
4:50 PM28 °FClear.9 mph64%29.06 "Hg10 mi
3:50 PM30 °FPassing clouds.9 mph69%29.09 "HgN/A
2:50 PM32 °FSunny.14 mph64%29.09 "Hg10 mi
2:20 PM34 °FSunny.9 mph65%29.09 "Hg10 mi
1:50 PM34 °FPassing clouds.6 mph65%29.12 "HgN/A
12:50 PM32 °FPassing clouds.6 mph80%29.15 "HgN/A
12:20 PM30 °FSunny.7 mph80%29.15 "Hg10 mi
11:50 AM30 °FPassing clouds.5 mph80%29.15 "HgN/A
10:50 AM28 °FScattered clouds.6 mph86%29.18 "HgN/A
9:50 AM28 °FPartly sunny.6 mph86%29.18 "HgN/A
9:20 AM28 °FOvercast.6 mph86%29.21 "HgN/A
8:50 AM28 °FSnow flurries. Mostly cloudy.6 mph86%29.21 "HgN/A
8:20 AM27 °FMostly cloudy.7 mph93%29.21 "HgN/A
7:50 AM27 °FLight snow. Mostly cloudy.8 mph93%29.21 "Hg3 mi
7:20 AM27 °FOvercast.7 mph93%29.21 "HgN/A
6:50 AM27 °FMostly cloudy.6 mph93%29.21 "HgN/A
6:20 AM27 °FMostly cloudy.6 mph93%29.21 "HgN/A
5:50 AM27 °FLight snow. Mostly cloudy.6 mph93%29.21 "HgN/A
5:20 AM27 °FLight snow. Mostly cloudy.8 mph93%29.21 "Hg5 mi
4:50 AM27 °FLight snow. Mostly cloudy.5 mph86%29.21 "HgN/A
4:20 AM27 °FSnow flurries. Low clouds.6 mph86%29.21 "HgN/A
3:50 AM27 °FLight snow. Partly cloudy.6 mph93%29.21 "HgN/A
3:20 AM25 °FLight snow. Mostly cloudy.6 mph100%29.21 "Hg2 mi
2:50 AM25 °FLight snow. Low clouds.7 mph100%29.21 "Hg1 mi
2:20 AM25 °FLight snow. Low clouds.5 mph93%29.21 "Hg1 mi
1:50 AM25 °FLight snow. Low clouds.12 mph93%29.21 "Hg1 mi
1:20 AM27 °FLight snow. Mostly cloudy.10 mph86%29.21 "Hg2 mi
12:50 AM27 °FLight snow. Mostly cloudy.12 mph86%29.21 "Hg2 mi
Weather by CustomWeather, © 2016

See weather overviewHow to use our weather pages